星链-31191 (STARLINK-31191 )

导读

STARLINK-31191是美国SpaceX星链(Starlink)项目中的一颗低轨通信卫星,于北京时间2024年1月15日发射入轨。它运行在近地轨道,轨道倾角约43°,轨道高度维持在482至484公里之间,每日绕地球运行约15.28圈。作为星链星座的组成部分,它旨在为全球提供高速低延迟的卫星互联网服务,目前已进入预定轨道正常运行。

基本信息
目录编号:
58800
目录名称:
STARLINK-31191
国际标识:
2024-012P
轨道中心:
EARTH
卫星名称:
星链-31191
卫星全名:
星链-31191 (STARLINK-31191 )
卫星状态:
在轨 (已飞行970 天)
发射日期:
2024-01-15 UTC
国别 :
美国 (US)
星等 :
--
该卫星已列入 空间交会检测服务 Space Conjunction Data Service (SCDS) ,当前飞行风险评估等级: 无高风险
轨道信息
数据来源 国际轨道数据
星历时间: 2026-09-11T13:16:28+0800
15小时前
查看轨道信息
半长轴: 6861.201km
偏心率: 0.0000461
轨道倾角: 43.001°
近地点辐角 266.739°
升交点赤经 197.190°
平近点角 93.341°
近地点: 482.747km
远地点: 483.381km
周期: 94.267分钟
每日圈数: 15.275751
详细信息
固有亮度:
5
最大亮度:
0.3
卫星平台:
Starlink v2.0 mini
覆盖范围:
全球
运营商:
太空探索技术公司
运营商所在国:
美国
制造商(研发单位):
太空探索技术公司
制造商所在国:
美国
使用方式:
暂无
卫星简介
星链(Starlink)计划是由太空探索技术公司(SpaceX)提出的一个巨型低轨卫星互联网星座项目,计划在2019年至2024年间在太空搭建由约1.2万颗卫星组成的“星链”网络,其中1584颗将部署在地球上空550千米处的近地轨道,并从2020年开始工作。该卫星仍在工作。
2D轨道图
3D轨道图
轨道高度分析图
轨道倾角分析图
轨道综合分析图
查看轨道综合分析图
交会数据列表
事件ID 空间交会对象 最接近时刻(TCA) 交会距离 交会风险概率(CRP) 交会风险指数(CRI) 操作
CDM_260912-155405-880006-697922
2026-09-12T
15:54:38+0000
0.214 km
中距离
6.517564E-4 高风险 0.91
CDM_260912-093605-880006-314822
2026-09-12T
09:36:44+0000
0.997 km
远距离
2.086317E-5 中风险 0.61
CDM_260912-225705-880006-314822
2026-09-12T
22:57:01+0000
1.116 km
极远距离
1.407324E-5 中风险 0.58
CDM_260914-072605-880006-196321
2026-09-14T
07:26:45+0000
0.918 km
远距离
7.578757E-6 低风险 0.53
CDM_260913-095705-880006-697921
2026-09-13T
09:57:23+0000
1.452 km
极远距离
5.644276E-6 低风险 0.5
CDM_260913-082305-880006-697921
2026-09-13T
08:23:14+0000
1.627 km
极远距离
3.928032E-6 低风险 0.47
CDM_260910-130805-880006-077622
2026-09-10T
13:08:00+0000
1.672 km
极远距离
3.548555E-6 低风险 0.46
CDM_260912-111005-880006-314822
2026-09-12T
11:10:53+0000
1.927 km
极远距离
2.462735E-6 低风险 0.43
CDM_260912-172805-880006-697922
2026-09-12T
17:28:47+0000
1.949 km
极远距离
2.358344E-6 低风险 0.42
CDM_260912-142005-880006-697922
2026-09-12T
14:20:28+0000
2.069 km
极远距离
2.033997E-6 低风险 0.41
与全量物体交会距离演化趋势
与全量物体交会风险概率演化趋势